Location: Ammerl�gen
(47.2167°N, 9.6000°E)
Time: 11:15:07
(UTC+00:00)

Cosmos 1633 - Pass Details

Date: 21 April 2021
Orbit: 461 x 478 km, 82.5° (Epoch: 06 May)

Event Time Altitude Azimuth Distance (km) Brightness Sun altitude
Rises 19:30:22 0° 356° (N) 2,536 6.8 -11.7°
Reaches altitude 10° 19:32:34 10° 4° (N) 1,650 5.7 -12.0°
Maximum altitude 19:36:00 42° 77° (ENE) 684 3.0 -12.5°
Enters shadow 19:38:00 21° 138° (SE) 1,104 3.8 -12.8°
